FW0879 Weather Reports


time (UTC)temp
C
wind
direction
speed
KPH
gust
KPH
rain 1hr
cm
rain 24hr
cm
rain mn
cm
humidity
%
barometer
mb
20260504081403 18 77 3.2 4.8 0.00 0.00 0.00 81 1010.6
20260504080902 18 74 3.2 4.8 0.00 0.00 0.00 80 1010.6
20260504080403 19 79 4.8 8.0 0.00 0.00 0.00 79 1010.6
20260504070402 18 354 4.8 8.0 0.00 0.00 0.00 82 1010.5
20260504050402 17 211 1.6 3.2 0.00 0.00 0.00 84 1010.1
20260504045902 17 207 1.6 4.8 0.00 0.00 0.00 84 1010.1
20260504045403 17 255 1.6 4.8 0.00 0.00 0.00 84 1010.1
20260504044403 17 204 4.8 8.0 0.00 0.00 0.00 84 1010.2
20260504043903 17 246 3.2 4.8 0.00 0.00 0.00 84 1010.1
20260504043402 17 214 1.6 4.8 0.00 0.00 0.00 84 1010.0
20260504042903 17 217 0.0 4.8 0.00 0.00 0.00 84 1010.0
20260504042402 17 271 3.2 4.8 0.00 0.00 0.00 84 1010.1
20260504041902 17 300 1.6 4.8 0.00 0.00 0.00 84 1010.2
20260504041403 17 215 0.0 4.8 0.00 0.00 0.00 84 1010.2
20260504040903 17 222 3.2 4.8 0.00 0.00 0.00 84 1010.3
20260504040402 17 242 3.2 4.8 0.00 0.00 0.00 84 1010.3
20260504035903 17 249 3.2 4.8 0.00 0.00 0.00 84 1010.4
20260504035403 17 209 3.2 4.8 0.00 0.00 0.00 84 1010.5
20260504034403 17 234 4.8 8.0 0.00 0.00 0.00 84 1010.6
20260504033903 17 263 4.8 8.0 0.00 0.00 0.00 84 1010.7
20260504033402 17 252 3.2 4.8 0.00 0.00 0.00 84 1010.8
20260504032903 17 247 4.8 8.0 0.00 0.00 0.00 84 1010.8
20260504031902 17 292 3.2 4.8 0.00 0.00 0.00 84 1010.7
20260504031402 17 277 3.2 4.8 0.00 0.00 0.00 83 1010.8
20260504030402 17 277 0.0 3.2 0.00 0.00 0.00 83 1010.8
20260504025902 17 277 3.2 4.8 0.00 0.00 0.00 83 1010.9
20260504025402 17 279 0.0 3.2 0.00 0.00 0.00 83 1011.0
20260504024903 17 279 3.2 4.8 0.00 0.00 0.00 83 1011.0
20260504024402 17 256 1.6 3.2 0.00 0.00 0.00 83 1011.0
20260504023902 17 255 3.2 4.8 0.00 0.00 0.00 82 1011.1
20260504023403 17 248 1.6 3.2 0.00 0.00 0.00 82 1011.0
20260504022903 17 234 1.6 4.8 0.00 0.00 0.00 82 1011.1
20260504022402 17 269 1.6 4.8 0.00 0.00 0.00 82 1011.1
20260504021902 18 247 3.2 4.8 0.00 0.00 0.00 81 1011.0
20260504020902 18 331 1.6 4.8 0.00 0.00 0.00 81 1011.0
20260504020402 18 292 1.6 4.8 0.00 0.00 0.00 81 1011.0
20260504015903 18 286 1.6 3.2 0.00 0.00 0.00 81 1011.1
20260504015403 18 261 3.2 4.8 0.00 0.00 0.00 81 1011.3
20260504014902 18 192 0.0 0.0 0.00 0.00 0.00 81 1011.2
20260504014402 18 192 0.0 0.0 0.00 0.00 0.00 81 1011.1
20260504013903 18 192 0.0 1.6 0.00 0.00 0.00 81 1011.3
20260504013403 18 192 1.6 4.8 0.00 0.00 0.00 81 1011.3
20260504012902 18 192 1.6 3.2 0.00 0.00 0.00 81 1011.2
20260504011903 18 192 0.0 3.2 0.00 0.00 0.00 81 1011.1
20260504011402 18 192 1.6 3.2 0.00 0.00 0.00 81 1011.1
20260504010402 18 192 1.6 3.2 0.00 0.00 0.00 81 1011.0
20260504005903 18 192 1.6 3.2 0.00 0.00 0.00 81 1011.0
20260504005402 18 192 0.0 1.6 0.00 0.00 0.00 81 1010.9
20260504004903 18 192 0.0 1.6 0.00 0.00 0.00 80 1010.8
20260504004403 18 192 1.6 1.6 0.00 0.00 0.00 80 1010.9
20260504003903 18 192 0.0 1.6 0.00 0.00 0.00 81 1010.9
20260504003403 18 192 0.0 1.6 0.00 0.00 0.00 80 1011.0
20260504002402 18 192 0.0 3.2 0.00 0.00 0.00 81 1011.0
20260504001402 18 227 0.0 1.6 0.00 0.00 0.00 80 1011.2
20260504000902 18 227 1.6 3.2 0.00 0.00 0.00 80 1011.3
20260504000402 18 264 3.2 4.8 0.00 0.00 0.00 80 1011.4
20260503235903 18 24 0.0 3.2 0.00 0.00 0.00 80 1011.4
20260503235403 18 256 1.6 3.2 0.00 0.00 0.00 80 1011.4
20260503234902 18 160 1.6 3.2 0.00 0.00 0.00 80 1011.5
20260503234402 18 160 0.0 1.6 0.00 0.00 0.00 80 1011.5
20260503233902 18 160 1.6 3.2 0.00 0.00 0.00 80 1011.5
20260503232902 18 160 0.0 3.2 0.00 0.00 0.00 80 1011.7
20260503232402 18 160 1.6 3.2 0.00 0.00 0.00 80 1011.7
20260503231903 18 160 1.6 3.2 0.00 0.00 0.00 80 1011.6
20260503231403 18 160 0.0 1.6 0.00 0.00 0.00 80 1011.8
20260503230903 18 160 1.6 3.2 0.00 0.00 0.00 80 1011.9
20260503230402 18 161 1.6 4.8 0.00 0.00 0.00 80 1011.9
20260503225903 18 219 1.6 3.2 0.00 0.00 0.00 80 1011.9
20260503225403 18 219 1.6 3.2 0.00 0.00 0.00 80 1011.9
20260503224902 18 219 0.0 0.0 0.00 0.00 0.00 80 1011.9
20260503224403 18 219 1.6 3.2 0.00 0.00 0.00 80 1012.0
20260503223903 18 219 0.0 1.6 0.00 0.00 0.00 80 1012.0
20260503223403 18 219 0.0 1.6 0.00 0.00 0.00 80 1012.0
20260503222902 18 219 0.0 1.6 0.00 0.00 0.00 81 1012.0
20260503222402 18 219 0.0 3.2 0.00 0.00 0.00 81 1012.0
20260503221903 18 219 1.6 3.2 0.00 0.00 0.00 81 1011.9
20260503221402 18 219 0.0 1.6 0.00 0.00 0.00 81 1011.9
20260503220902 17 219 0.0 3.2 0.00 0.00 0.00 81 1012.0
20260503220402 17 220 0.0 3.2 0.00 0.00 0.00 81 1012.0
20260503215403 17 277 1.6 3.2 0.00 0.00 0.00 81 1012.1
20260503214903 17 277 0.0 0.0 0.00 0.00 0.00 81 1012.2
20260503214403 17 277 0.0 0.0 0.00 0.00 0.00 81 1012.1
20260503213903 17 277 0.0 1.6 0.00 0.00 0.00 81 1012.2
20260503213402 17 277 0.0 3.2 0.00 0.00 0.00 81 1012.3
20260503212902 17 277 3.2 4.8 0.00 0.00 0.00 81 1012.3
20260503212402 17 277 1.6 3.2 0.00 0.00 0.00 81 1012.2
20260503211903 17 210 1.6 4.8 0.00 0.00 0.00 81 1012.2
20260503211403 17 234 1.6 4.8 0.00 0.00 0.00 81 1012.2
20260503210902 17 250 4.8 4.8 0.00 0.00 0.00 81 1012.0
20260503210402 17 245 4.8 9.7 0.00 0.00 0.00 82 1012.0
20260503205902 17 244 6.4 8.0 0.00 0.00 0.00 81 1012.0
20260503204402 17 212 3.2 4.8 0.00 0.00 0.00 81 1011.9
20260503203902 17 235 1.6 4.8 0.00 0.00 0.00 81 1011.9
20260503202903 17 235 1.6 4.8 0.00 0.00 0.00 81 1011.8
20260503201903 17 257 3.2 4.8 0.00 0.00 0.00 81 1011.7
20260503201403 18 233 3.2 4.8 0.00 0.00 0.00 80 1011.5
20260503200902 18 237 3.2 4.8 0.00 0.00 0.00 80 1011.4
20260503195403 18 328 0.0 3.2 0.00 0.00 0.00 80 1011.3
20260503194902 18 328 0.0 3.2 0.00 0.00 0.00 80 1011.2
20260503194402 18 288 0.0 3.2 0.00 0.00 0.00 79 1011.2
20260503193903 18 335 1.6 4.8 0.00 0.00 0.00 80 1011.1
20260503192402 18 30 1.6 4.8 0.00 0.00 0.00 80 1010.9
20260503191903 18 74 1.6 4.8 0.00 0.00 0.00 80 1010.8
20260503191403 18 49 4.8 8.0 0.00 0.00 0.00 79 1010.7
20260503190902 18 334 3.2 8.0 0.00 0.00 0.00 79 1010.8
20260503190403 18 94 3.2 8.0 0.00 0.00 0.00 79 1010.8
20260503185903 18 110 1.6 3.2 0.00 0.00 0.00 79 1010.7
20260503185402 18 110 1.6 3.2 0.00 0.00 0.00 80 1010.7
20260503184403 18 73 1.6 4.8 0.00 0.00 0.00 80 1010.8
20260503183402 18 42 1.6 4.8 0.00 0.00 0.00 80 1010.8
20260503181902 18 46 4.8 8.0 0.00 0.00 0.00 79 1010.6
20260503181403 18 64 1.6 4.8 0.00 0.00 0.00 79 1010.5
20260503180902 18 58 3.2 9.7 0.00 0.00 0.00 78 1010.4
20260503180403 18 89 4.8 9.7 0.00 0.00 0.00 78 1010.4
20260503175902 18 82 3.2 4.8 0.00 0.00 0.00 79 1010.4
20260503175403 18 47 8.0 11.3 0.00 0.00 0.00 79 1010.4
20260503174903 18 43 8.0 11.3 0.00 0.00 0.00 79 1010.5
20260503174403 18 73 4.8 8.0 0.00 0.00 0.00 79 1010.6
20260503173403 18 120 4.8 9.7 0.00 0.00 0.00 78 1010.6
20260503172403 18 67 4.8 11.3 0.00 0.00 0.00 79 1010.4
20260503171902 18 88 4.8 11.3 0.00 0.00 0.00 79 1010.4
20260503171402 18 65 8.0 12.9 0.00 0.00 0.00 79 1010.4
20260503170903 18 69 9.7 19.3 0.00 0.00 0.00 79 1010.4
20260503150902 19 38 9.7 16.1 0.00 0.00 0.00 78 1011.2
20260503131403 20 1 11.3 16.1 0.00 0.00 0.00 73 1011.8
20260503130903 20 37 8.0 11.3 0.00 0.00 0.00 74 1011.8
20260503130403 19 24 8.0 12.9 0.00 0.00 0.00 74 1011.9
20260503110403 19 347 8.0 11.3 0.00 0.00 0.00 73 1012.8